This demonstration page uses our WeatherBlox Daily Observations layout. Learn more.

Left ArrowRight Arrow

36.19886, -115.1175

Hourly Observations for April 4, 2021

Temp ( °F °C ) Dew Point ( °F °C ) Humidity (%) Winds ( mph kmh ) Pressure ( in mb ) Visibility ( mi km ) Precip ( " mm )
12:53 am 00:53 Clear 69 20.6 10 -12.2 10 10 N N/A 29.94 1014 10 16 N/A
1:53 am 01:53 Clear 65 18.3 13 -10.6 13 13 N N/A 29.93 1014 10 16 N/A
2:53 am 02:53 Clear 62 16.7 11 -11.7 13 13 NW 8 13 29.92 1013 10 16 N/A
3:53 am 03:53 Clear 60 15.6 13 -10.6 16 16 WNW 8 13 29.92 1013 10 16 N/A
4:53 am 04:53 Clear 61 16.1 13 -10.6 15 15 WNW 7 11 29.92 1013 10 16 N/A
5:53 am 05:53 Clear 59 15 11 -11.7 15 15 WNW 5 7 29.93 1014 10 16 N/A
6:53 am 06:53 Sunny 61 16.1 11 -11.7 14 14 W 6 9 29.95 1014 10 16 N/A
7:53 am 07:53 Sunny 66 18.9 13 -10.6 13 13 NNW 5 7 29.97 1015 10 16 N/A
8:53 am 08:53 Sunny 73 22.8 12 -11.1 9 9 NNW 8 13 29.97 1015 10 16 N/A
9:53 am 09:53 Sunny 79 26.1 10 -12.2 7 7 NNE 8 13 29.97 1015 10 16 N/A
10:53 am 10:53 Sunny 81 27.2 9 -12.8 6 6 N N/A 29.96 1015 10 16 N/A
11:53 am 11:53 Sunny 83 28.3 9 -12.8 6 6 VRB 3 6 29.95 1014 10 16 N/A
12:53 pm 12:53 Sunny 85 29.4 7 -13.9 5 5 N N/A 29.91 1013 10 16 N/A
1:53 pm 13:53 Sunny 88 31.1 8 -13.3 5 5 N N/A 29.89 1012 10 16 N/A
2:53 pm 14:53 Sunny 90 32.2 7 -13.9 4 4 VRB 5 7 29.85 1011 10 16 N/A
3:53 pm 15:53 Sunny 90 32.2 5 -15 4 4 ESE 7 11 29.83 1010 10 16 N/A
4:53 pm 16:53 Sunny 90 32.2 6 -14.4 4 4 E 7 11 29.80 1009 10 16 N/A
5:53 pm 17:53 Sunny 90 32.2 4 -15.6 4 4 WSW 12 19 29.79 1009 10 16 N/A
6:53 pm 18:53 Sunny 87 30.6 5 -15 4 4 SW 8 13 29.78 1009 10 16 N/A
7:53 pm 19:53 Clear 85 29.4 2 -16.7 4 4 WSW 9 15 29.78 1008 10 16 N/A
8:53 pm 20:53 Clear 79 26.1 4 -15.6 5 5 NW 5 7 29.78 1008 10 16 N/A
9:53 pm 21:53 Clear 79 26.1 7 -13.9 6 6 N N/A 29.78 1009 10 16 N/A
10:53 pm 22:53 Clear 77 25 10 -12.2 8 8 W 6 9 29.77 1008 10 16 N/A
11:53 pm 23:53 Clear 73 22.8 11 -11.7 9 9 NW 7 11 29.75 1008 10 16 N/A

Powered by AerisWeather